Powrót do katalogu

YAOGAN 16A

AktywnyMilitariaLEO
NORAD 39011·PAYLOAD·🇨🇳 China

Wystrzelony Nov 25, 2012 z Jiuquan Satellite Launch Center

Loading…

Następne Przeloty (najbliższe 24 godziny)

TLE

ŚwieżeSource: Space-Track

Epoka: Sep 14, 2026, 10:31 UTC

1 39011U 12066A   26257.43883906 -.00000076  00000-0  13653-4 0  9998
2 39011  63.3521  59.2592 0442623  27.9025 334.4993 13.45521761678151

Śledź YAOGAN 16A w czasie rzeczywistym z AllMySat

Download on the App Store